TimeHST,TemperatureF,Dew PointF,Humidity,Sea Level PressureIn,VisibilityMPH,Wind Direction,Wind SpeedMPH,Gust SpeedMPH,PrecipitationIn,Events,Conditions,WindDirDegrees,DateUTC
12:54 AM,68.0,66.0,93,29.96,10.0,Calm,Calm,-,N/A,,Overcast,0,2013-05-05 10:54:00
1:54 AM,68.0,64.9,90,29.96,10.0,East,3.5,-,N/A,,Overcast,90,2013-05-05 11:54:00
2:33 AM,69.8,64.4,83,29.93,10.0,East,5.8,-,N/A,,Overcast,90,2013-05-05 12:33:00
2:42 AM,68.0,64.4,88,29.93,10.0,East,5.8,-,N/A,,Overcast,90,2013-05-05 12:42:00
2:54 AM,68.0,64.9,90,29.94,10.0,East,5.8,-,N/A,,Overcast,80,2013-05-05 12:54:00
3:01 AM,68.0,64.4,88,29.92,10.0,East,4.6,-,N/A,,Mostly Cloudy,80,2013-05-05 13:01:00
3:19 AM,68.0,64.4,88,29.92,10.0,Calm,Calm,-,N/A,,Mostly Cloudy,0,2013-05-05 13:19:00
3:54 AM,69.1,64.9,87,29.93,10.0,Calm,Calm,-,N/A,,Overcast,0,2013-05-05 13:54:00
4:34 AM,66.2,66.2,100,29.92,10.0,East,4.6,-,N/A,,Overcast,90,2013-05-05 14:34:00
4:54 AM,66.9,66.0,97,29.93,10.0,East,5.8,-,N/A,,Overcast,80,2013-05-05 14:54:00
5:54 AM,66.9,66.0,97,29.94,10.0,East,9.2,-,N/A,,Scattered Clouds,100,2013-05-05 15:54:00
6:20 AM,66.2,64.4,94,29.94,10.0,East,9.2,-,N/A,,Mostly Cloudy,90,2013-05-05 16:20:00
6:45 AM,66.2,64.4,94,29.94,10.0,East,8.1,-,0.00,Rain,Light Rain,90,2013-05-05 16:45:00
6:54 AM,66.9,66.0,97,29.96,8.0,East,6.9,-,0.00,Rain,Rain,100,2013-05-05 16:54:00
7:33 AM,68.0,66.2,94,29.95,10.0,SE,5.8,-,0.01,,Mostly Cloudy,130,2013-05-05 17:33:00
7:54 AM,69.1,68.0,96,29.97,10.0,ESE,6.9,-,0.01,,Mostly Cloudy,110,2013-05-05 17:54:00
8:54 AM,71.1,66.9,87,29.98,10.0,SE,11.5,-,0.00,,Scattered Clouds,140,2013-05-05 18:54:00
9:54 AM,72.0,66.0,81,29.98,10.0,SSE,12.7,-,0.00,,Mostly Cloudy,150,2013-05-05 19:54:00
10:01 AM,73.4,66.2,78,29.96,10.0,SSE,10.4,-,N/A,,Mostly Cloudy,150,2013-05-05 20:01:00
10:54 AM,73.9,66.9,79,29.97,10.0,South,16.1,-,N/A,,Mostly Cloudy,170,2013-05-05 20:54:00
11:54 AM,75.0,66.9,76,29.94,10.0,SSE,17.3,23.0,0.00,,Mostly Cloudy,150,2013-05-05 21:54:00
12:54 PM,72.0,66.9,84,29.94,10.0,SSW,12.7,20.7,N/A,,Mostly Cloudy,200,2013-05-05 22:54:00
1:01 PM,73.4,68.0,83,29.92,9.0,SSW,15.0,-,0.00,Rain,Light Rain,200,2013-05-05 23:01:00
1:54 PM,72.0,69.1,91,29.92,6.0,SSW,11.5,-,0.01,Rain,Rain,200,2013-05-05 23:54:00
2:54 PM,69.1,68.0,96,29.91,10.0,South,10.4,-,0.00,,Mostly Cloudy,190,2013-05-06 00:54:00
3:02 PM,68.0,68.0,100,29.91,7.0,South,12.7,19.6,N/A,,Overcast,170,2013-05-06 01:02:00
3:19 PM,-9999,-9999,N/A,29.91,4.0,SSE,11.5,-,0.01,Rain,Rain,150,2013-05-06 01:19:00
3:37 PM,69.8,66.2,88,29.90,5.0,SE,9.2,-,0.02,Rain,Light Rain,140,2013-05-06 01:37:00
3:54 PM,69.8,66.9,91,29.91,3.0,South,17.3,23.0,0.07,Rain,Heavy Rain,180,2013-05-06 01:54:00
4:01 PM,69.8,68.0,94,29.90,3.0,SSE,18.4,24.2,0.03,Rain,Rain,160,2013-05-06 02:01:00
4:54 PM,69.8,68.0,94,29.91,4.0,SE,15.0,21.9,0.06,Rain,Light Rain,140,2013-05-06 02:54:00
5:54 PM,69.8,68.0,94,29.91,5.0,ESE,11.5,-,0.01,,Mostly Cloudy,120,2013-05-06 03:54:00
6:01 PM,68.0,66.2,94,29.90,10.0,SE,9.2,-,N/A,,Mostly Cloudy,130,2013-05-06 04:01:00
6:54 PM,68.0,66.0,93,29.93,10.0,SE,6.9,-,N/A,,Mostly Cloudy,130,2013-05-06 04:54:00
7:07 PM,-9999,-9999,N/A,29.92,6.0,SSE,6.9,-,0.00,Rain,Light Rain,160,2013-05-06 05:07:00
7:19 PM,-9999,-9999,N/A,29.93,5.0,South,11.5,18.4,0.02,Rain,Light Rain,170,2013-05-06 05:19:00
7:42 PM,-9999,-9999,N/A,29.93,10.0,SE,10.4,-,0.03,Rain,Light Rain,140,2013-05-06 05:42:00
7:51 PM,-9999,-9999,N/A,29.94,9.0,South,5.8,-,0.03,,Overcast,170,2013-05-06 05:51:00
7:54 PM,-9999,-9999,N/A,29.94,9.0,South,6.9,-,0.03,,Overcast,180,2013-05-06 05:54:00
8:10 PM,-9999,-9999,N/A,29.94,10.0,South,11.5,-,N/A,,Mostly Cloudy,180,2013-05-06 06:10:00
8:30 PM,-9999,-9999,N/A,29.95,9.0,South,13.8,-,N/A,,Overcast,190,2013-05-06 06:30:00
8:54 PM,-9999,-9999,N/A,29.96,5.0,SSE,6.9,-,0.00,Rain,Light Rain,150,2013-05-06 06:54:00
9:02 PM,-9999,-9999,N/A,29.96,4.0,ESE,6.9,-,0.00,Rain,Light Rain,120,2013-05-06 07:02:00
9:12 PM,-9999,-9999,N/A,29.96,4.0,ESE,6.9,-,0.00,Rain,Light Rain,120,2013-05-06 07:12:00
9:54 PM,-9999,-9999,N/A,29.95,9.0,ESE,10.4,-,0.00,,Overcast,110,2013-05-06 07:54:00
10:54 PM,-9999,-9999,N/A,29.95,10.0,South,11.5,-,N/A,,Scattered Clouds,170,2013-05-06 08:54:00
11:09 PM,-9999,-9999,N/A,29.96,7.0,SSE,8.1,-,0.00,Rain,Light Rain,160,2013-05-06 09:09:00
11:22 PM,-9999,-9999,N/A,29.96,8.0,SSE,5.8,-,0.00,,Overcast,160,2013-05-06 09:22:00
11:44 PM,-9999,-9999,N/A,29.95,8.0,SSE,9.2,-,0.00,,Overcast,150,2013-05-06 09:44:00
11:54 PM,-9999,-9999,N/A,29.95,7.0,SSE,9.2,-,0.00,Rain,Light Rain,150,2013-05-06 09:54:00
11:59 PM,-9999,-9999,N/A,29.95,6.0,SSE,8.1,-,0.00,Rain,Light Rain,160,2013-05-06 09:59:00